Location: Caltech
(34.1382°N, 118.1253°W)
Time: 21:55:28
(UTC-07:00)

Gbstr 26 Del rocket - Visible Passes

Search period start: 05 July 2015 00:00
Search period end: 15 July 2015 00:00
Orbit: 493 x 1271 km, 51.8° (Epoch: 05 July)

Date Brightness Start Highest point End Pass type
(mag) Time Alt. Az. Time Alt. Az. Time Alt. Az.
05 Jul 5.4 00:54:59 20° NE 00:54:59 20° NE 00:56:18 10° NE visible
05 Jul 5.6 02:37:33 13° NW 02:39:16 15° NNW 02:41:39 10° N visible
06 Jul 5.2 00:50:55 24° NNE 00:50:55 24° NNE 00:52:42 10° NE visible
06 Jul 5.8 02:33:53 10° NW 02:35:55 12° NNW 02:37:42 10° N visible
07 Jul 5.0 00:46:43 28° NNE 00:46:43 28° NNE 00:49:04 10° NE visible
07 Jul 6.0 02:31:27 10° NW 02:32:34 11° NNW 02:33:32 10° N visible
08 Jul 4.9 00:42:17 31° N 00:42:17 31° N 00:45:23 10° NNE visible
08 Jul 5.6 22:54:53 13° ENE 22:54:53 13° ENE 22:55:25 10° ENE visible
09 Jul 5.0 00:37:22 28° NW 00:37:43 29° NW 00:41:41 10° NNE visible
09 Jul 4.1 22:48:41 43° ENE 22:48:41 43° ENE 22:51:57 10° NE visible
10 Jul 5.4 00:30:55 14° WNW 00:34:15 24° NNW 00:37:58 10° NNE visible
10 Jul 5.2 20:52:43 10° SSE 20:56:16 16° SE 20:59:45 10° E visible
10 Jul 3.5 22:37:02 10° SW 22:43:22 88° SE 22:48:26 10° NE visible
11 Jul 5.7 00:26:51 10° WNW 00:30:50 20° NNW 00:34:13 10° NNE visible
11 Jul 6.3 04:08:15 10° NNE 04:08:19 10° NNE 04:08:27 10° NNE visible
11 Jul 5.0 20:47:57 10° S 20:52:40 21° SE 20:56:59 10° E visible
11 Jul 3.8 22:33:28 10° SW 22:39:48 73° NW 22:44:51 10° NE visible
12 Jul 6.0 00:23:55 10° WNW 00:27:25 17° NNW 00:30:27 10° NNE visible
12 Jul 6.0 04:03:25 10° N 04:04:59 12° NNE 04:06:35 10° NE visible
12 Jul 4.7 20:43:32 10° S 20:49:05 28° SE 20:53:55 10° ENE visible
12 Jul 4.2 22:30:01 10° WSW 22:36:15 58° NW 22:41:15 10° NE visible
13 Jul 6.2 00:21:03 10° WNW 00:24:03 15° NNW 00:26:40 10° N visible
13 Jul 5.9 03:59:22 10° N 04:01:38 15° NNE 04:03:53 10° ENE visible
13 Jul 4.4 20:39:21 10° SSW 20:45:29 36° SE 20:50:40 10° ENE visible
13 Jul 4.7 22:26:37 10° WSW 22:32:42 46° NW 22:37:36 10° NE visible
14 Jul 6.4 00:18:17 10° NW 00:20:42 13° NNW 00:22:51 10° N visible
14 Jul 5.6 03:55:28 10° NNW 03:58:16 18° NNE 04:00:58 10° ENE visible
14 Jul 4.2 20:35:20 10° SSW 20:41:54 46° SE 20:47:19 10° ENE visible
14 Jul 5.1 22:23:20 10° WSW 22:29:11 38° NW 22:33:56 10° NNE visible
